Regional Weather Roundup
Issued by NWS

Home | Current Version | Previous Version | Text Only | Print | Product List | Glossary On
Versions: 1 2 3 4 5 6 7 8 9 10 11 12 13 14 15 16 17 18 19 20 21 22 23 24 25 26 27 28
000
ASUS43 KMPX 031210
RWRMN
WEATHER ROUNDUP FOR MINNESOTA
NATIONAL WEATHER SERVICE TWIN CITIES/CHANHASSEN MN
700 AM CDT TUE AUG 03 2021


NOTE: "FAIR" INDICATES FEW OR NO CLOUDS BELOW 12,000 FEET WITH NO
SIGNIFICANT WEATHER AND/OR OBSTRUCTIONS TO VISIBILITY. N/A MEANS
CURRENT SKY AND/OR WEATHER CONDITIONS ARE NOT AVAILABLE.

MNZ060>063-068>070-031300-
   Twin Cities Metro

CITY           SKY/WX    TMP DP  RH WIND       PRES   REMARKS
TWIN CITIES    CLEAR     63  56  78 SW3       30.11R
6HR MIN TEMP:  63; 6HR MAX TEMP:  69;

ST PAUL        CLEAR     64  55  72 CALM      30.11R
CRYSTAL        CLEAR     60  54  80 CALM      30.09R
BLAINE         CLEAR     63  55  77 CALM      30.10R
LAKEVILLE      CLEAR     57  55  94 CALM      30.12R
EDEN PRAIRIE   CLEAR     60  56  86 SW3       30.10R
6HR MIN TEMP:  58; 6HR MAX TEMP:  66;

SOUTH ST PAUL  CLEAR     63  55  73 CALM      30.11R
LAKE ELMO      FAIR      57  54  88 CALM      30.11R
$$
MNZ001>005-007-008-013>017-022>024-027-028-031300-
   Northwest Minnesota

CITY           SKY/WX    TMP DP  RH WIND       PRES   REMARKS
BEMIDJI        CLEAR     57  53  86 CALM      30.05S
HALLOCK        PTCLDY    55  54  94 SE3       30.01R FOG
ROSEAU         CLEAR     57  52  82 S5        30.01S HAZE
WARROAD        CLEAR     55  52  88 CALM      30.01S FOG
THIEF RVR FALL PTCLDY    58  54  86 SW5       30.04R FOG
CROOKSTON      PTCLDY    57  54  88 S6        30.03S
FOSSTON        PTCLDY    55  52  88 S5        30.05S FOG
DETROIT LAKES  PTCLDY    63  55  77 CALM      30.07S
MOORHEAD       PTCLDY    61  54  77 CALM      30.06S HAZE
PARK RAPIDS    PTCLDY    60  54  80 S5        30.06S HAZE
MAHNOMEN       FAIR      58  55  91 S6        30.05S
$$
MNZ006-009>011-018-025>026-031300-
   North Central Minnesota

CITY           SKY/WX    TMP DP  RH WIND       PRES   REMARKS
BAUDETTE       CLEAR     55  53  93 CALM      30.02R FOG
INTL FALLS     PTCLDY    57  53  86 CALM      30.01R FOG
6HR MIN TEMP:  53; 6HR MAX TEMP:  62;

WASKISH        CLEAR     68  59  73 W9        30.03S
BIG FORK         N/A     54  54 100 CALM      30.09S
LONGVILLE      CLEAR     61  55  82 CALM      30.06S HAZE
GRAND RAPIDS   CLEAR     65  56  72 SW3       30.01R
CRANE LAKE     SUNNY     52  52 100 CALM      30.05R
ORR            CLEAR     55  54  94 CALM      30.02S FOG
COOK           SUNNY     57  54  88 CALM      30.04R
WALKER         SUNNY     64  54  70 W6        30.05S
$$
MNZ012-019>021-037-031300-
   Northeast Minnesota

CITY           SKY/WX    TMP DP  RH WIND       PRES   REMARKS
DULUTH         MOSUNNY   66  54  65 NW7       30.06R SMOKE
6HR MIN TEMP:  61; 6HR MAX TEMP:  68;

ELY            SUNNY     57  52  82 CALM      30.04S HAZE
HIBBING        PTCLDY    52  50  93 CALM      30.05S FOG
EVELETH        SUNNY     54  52  94 W3        30.06S
DULUTH HARBOR  PTSUNNY   64  55  72 S8        30.04S HAZE
TWO HARBORS    SUNNY     64  54  68 NW7       30.02S
GRAND MARAIS     N/A     70  53  54 VRB7      29.97S
G MARAIS ARPRT SUNNY     59  50  72 N3        30.03S HAZE
$$
MNZ029>031-032-039>041-046>048-054>057-064-031300-
   West Central Minnesota

CITY           SKY/WX    TMP DP  RH WIND       PRES   REMARKS
FERGUS FALLS   PTCLDY    63  55  77 CALM      30.04S HAZE
WHEATON        CLEAR     57  54  88 S3        30.08S FOG
MORRIS         PTCLDY    55  55 100 S3        30.09S FOG
ALEXANDRIA     PTCLDY    61  56  83 SW3       30.10S HAZE
WADENA         PTCLDY    59  55  88 W3        30.07S FOG
GLENWOOD       PTCLDY    59  55  88 CALM      30.09S FOG
APPLETON       CLEAR     57  54  88 CALM      30.08R FOG
BENSON         PTCLDY    54  52  94 CALM      30.10R FOG
ORTONVILLE     CLEAR     57  55  94 CALM      30.08R FOG
MADISON        CLEAR     57  54  88 CALM      30.10R FOG
WILLMAR        FAIR      57  54  88 SE5       30.13S FOG
$$
MNZ033>034-036-042>043-049>051-058-059-031300-
   Central Minnesota

CITY           SKY/WX    TMP DP  RH WIND       PRES   REMARKS
ST CLOUD       CLEAR     54  52  93 CALM      30.09S FOG
6HR MIN TEMP:  51; 6HR MAX TEMP:  57;

SAUK CENTRE    FAIR      56  55  99 CALM      30.09S FOG
PAYNESVILLE    PTCLDY    55  55 100 CALM      30.11R FOG
AITKIN         MOCLDY    55  54  94 CALM      30.08R FOG
PINE RIVER     CLEAR     54  52  94 CALM      30.10S FOG
BRAINERD       PTCLDY    58  54  86 SW3       30.08S FOG
STAPLES        PTCLDY    57  55  94 CALM      30.08S FOG
LONG PRAIRIE   FAIR      55  55 100 CALM      30.10R FOG
LITTLE FALLS   CLOUDY    54  54 100 CALM      30.09S FOG
CAMP RIPLEY    FAIR      57  55  93 CALM      30.10R FOG
BUFFALO        CLEAR     57  53  86 MISG      30.12R
MAPLE LAKE     CLEAR     59  58  95 CALM      30.11S FOG
HUTCHINSON     PTCLDY    55  55  97 CALM      30.12R FOG
$$
MNZ037-044-045-052-053-031300-
   East Central Minnesota

CITY           SKY/WX    TMP DP  RH WIND       PRES   REMARKS
PRINCETON      CLEAR     54  54 100 CALM      30.10R
MORA           CLEAR     50  50 100 CALM      30.10S FOG
CAMBRIDGE      CLEAR     55  48  76 CALM      30.10R
RUSH CITY      CLEAR     54  52  94 CALM      30.10R
MOOSE LAKE     PTCLDY    54  54 100 CALM      30.06R
HINCKLEY       MOSUNNY   54  54 100 CALM      30.09S
CLOQUET        PTCLDY    63  54  72 W5        30.06R
MCGREGOR       PTCLDY    59  54  82 CALM      30.08S
$$
MNZ071>073-080-081-089-090-097-098-031300-
   Southwest Minnesota

CITY           SKY/WX    TMP DP  RH WIND       PRES   REMARKS
MONTEVIDEO     CLEAR     55  52  88 CALM      30.10R FOG
GRANITE FALLS  CLEAR     56  55  94 CALM      30.11S FOG
CANBY          CLEAR     64  57  80 SW5       30.10S
MARSHALL       CLEAR     63  58  83 SW10      30.10R
REDWOOD FALLS  PTCLDY    56  53  90 CALM      30.10R FOG
OLIVIA         PTCLDY    55  54  94 CALM      30.10R FOG
PIPESTONE      PTCLDY    55  54  94 CALM      30.13R FOG
WINDOM         CLEAR     59  54  82 S3        30.13S
WORTHINGTON    CLEAR     59  56  89 SW6       30.14S
JACKSON        CLEAR     55  52  88 CALM      30.15R
TRACY          CLEAR     63  54  74 SW8       30.11S
SLAYTON        CLEAR     59  55  87 CALM      30.13S FOG
$$
MNZ065>067-074>077-082>085-091>093-031300-
   South Central Minnesota

CITY           SKY/WX    TMP DP  RH WIND       PRES   REMARKS
MANKATO        CLEAR     57  54  89 S6        30.13S
NEW ULM        PTCLDY    57  54  88 CALM      30.12R
ST JAMES         N/A     57  54  88 MISG      30.12S
FAIRMONT       PTCLDY    56  53  90 CALM      30.14R
GLENCOE        PTCLDY    56  53  89 CALM      30.11R
FARIBAULT      CLEAR     55  54  94 CALM      30.13R
OWATONNA       CLEAR     55  52  88 CALM      30.14R
WASECA         CLEAR     52  50  93 CALM      30.15R
ALBERT LEA     CLEAR     55  54  94 CALM      30.14S
$$
MNZ078>079-086>088-094>096-031300-
   Southeast Minnesota

CITY           SKY/WX    TMP DP  RH WIND       PRES   REMARKS
ROCHESTER      CLEAR     57  53  86 W6        30.14R
6HR MIN TEMP:  54; 6HR MAX TEMP:  59;

RED WING       CLEAR     55  54  94 CALM      30.10S
STANTON        CLEAR     56  54  90 S3        30.11S
DODGE CENTER   CLEAR     55  52  88 W5        30.14R
WINONA         CLEAR     57  57 100 CALM      30.13R
AUSTIN         CLEAR     52  52 100 CALM      30.14S
PRESTON        CLEAR     58  53  81 W5        30.15R
$$
ABBREVIATIONS USED IN REMARKS
   TC - TEMPERATURES IN CELSIUS
  WCI - WIND CHILL INDEX
   HX - HEAT INDEX
  VSB - VISIBILITY
$$



USA.gov is the U.S. government's official web portal to all federal, state and local government web resources and services.